sat.trackr.live / text

‹ back to catalog

STARLINK-31444

NORAD 59236 · 2024-049F

PAYLOAD ACTIVE UNKNOWN

§ Identity

Operator
Country
US
Launch date
2024-03-16
Launch site
AFETR
Launch vehicle
Mass (kg)
RCS (m²)

Purposes: comms

External: N2YO · Heavens-Above · Gunter

§ Orbital elements

Epoch: 2026-09-20T22:00:03.000096Z

Period
92.75 min
Inclination
42.9927°
Eccentricity
0.0020015
Mean motion
15.52616975 rev/d
Perigee alt
395.5 km
Apogee alt
422.7 km
Semi-major
6,787.2 km
B*
2.4981e-3
RAAN
34.0779°
Arg perigee
335.7660°
Mean anomaly
356.2345°
Rev number
591

§ Raw data

STARLINK-314441 59236U 24049F   26263.91670139  .00161858  00000+0  24981-2 0  99932 59236  42.9927  34.0779 0020015 335.7660 356.2345 15.52616975  5918

JSON: /api/v1/satellites/59236 · /tle

For live sub-satellite position, see the globe view (requires WebGL).

§ Visibility from observer

Set your observer location to see the next 7 days of passes ≥ 10°. The values pass through the URL so the page stays shareable.

No JS? Fill the form by hand. The geolocation button needs JavaScript.